Columbia, SC

6:08 AM EDT on September 18, 2019 (GMT -0400)
Columbia Metro

Weather History for KCAE - August, 2019

Change the Weather History Date:

Friday, August 23, 2019

  Actual Average Record
Temperature  
Mean Temperature 82 °F 80 °F  
Max Temperature 92 °F 90 °F 106 °F (1968)
Min Temperature 72 °F 71 °F 55 °F (1930)
Degree Days  
Heating Degree Days 0 0  
Month to date heating degree days 0 0  
Since 1 June heating degree days 0 1  
Since 1 July heating degree days 0 0  
Cooling Degree Days 17 15  
Month to date cooling degree days 444 376  
Year to date cooling degree days 1935 1653  
Since 1 June cooling degree days 1415 1332  
Growing Degree Days 32 (Base 50)    
Moisture  
Dew Point 73 °F    
Average Humidity 75    
Maximum Humidity 94    
Minimum Humidity 56    
Precipitation  
Precipitation 0.46 in 0.16 in 2.30 in (1967)
Month to date precipitation 1.29 4.06  
Year to date precipitation 25.53 30.72  
Sea Level Pressure  
Sea Level Pressure 30.01 in    
Wind  
Wind Speed 5 mph (SSW)    
Max Wind Speed 22 mph    
Max Gust Speed 28 mph    
Visibility 9 miles    
Events Rain , Thunderstorm    
T = Trace of Precipitation, MM = Missing Value Source: NWS Daily Summary

Daily Weather History Graph

Daily Weather History Graph

Search for Another Location

Airport or City:

Astronomy

Aug. 23, 2019 Rise Set
Actual Time 6:51 AM EDT 8:02 PM EDT
Civil Twilight 6:25 AM EDT 8:27 PM EDT
Nautical Twilight 5:54 AM EDT 8:58 PM EDT
Astronomical Twilight 5:22 AM EDT 9:30 PM EDT
Moon 12:11 AM EDT (8/23) 2:06 PM EDT (8/23)
Length of Visible Light 14h 02m
Length of Day
13h 10m
Waning Gibbous, 50% of the Moon is Illuminated
Aug 23
Waning Gibbous
Aug 30
New
Sep 5
First Quarter
Sep 14
Full
Sep 21
Last Quarter

Hourly Weather History & Observations

Time (EDT) Temp. Heat Index Dew Point Humidity Pressure Visibility Wind Dir Wind Speed Gust Speed Precip Events Conditions
12:56 AM 77.0 °F - 70.0 °F 79% 30.02 in 10.0 mi SW 5.8 mph - N/A   Partly Cloudy
1:56 AM 75.9 °F - 70.0 °F 82% 30.01 in 10.0 mi SSW 3.5 mph - N/A   Clear
2:56 AM 75.9 °F - 70.0 °F 82% 30.01 in 10.0 mi SSW 4.6 mph - N/A   Clear
3:56 AM 75.0 °F - 71.1 °F 87% 30.00 in 10.0 mi WSW 3.5 mph - N/A   Clear
4:56 AM 75.0 °F - 71.1 °F 87% 30.00 in 10.0 mi Calm Calm - N/A   Clear
5:56 AM 73.9 °F - 71.1 °F 91% 30.01 in 10.0 mi WSW 4.6 mph - N/A   Clear
6:56 AM 75.0 °F - 72.0 °F 90% 30.03 in 10.0 mi WSW 3.5 mph - N/A   Partly Cloudy
7:56 AM 75.9 °F - 72.0 °F 87% 30.04 in 10.0 mi WSW 4.6 mph - N/A   Scattered Clouds
8:56 AM 80.1 °F 84.2 °F 73.0 °F 79% 30.04 in 10.0 mi WSW 5.8 mph - N/A   Scattered Clouds
9:56 AM 82.9 °F 89.4 °F 73.9 °F 74% 30.04 in 10.0 mi South 4.6 mph - N/A   Scattered Clouds
10:56 AM 90.0 °F 97.9 °F 73.0 °F 57% 30.02 in 10.0 mi West 8.1 mph - N/A   Scattered Clouds
11:56 AM 91.0 °F 99.3 °F 73.0 °F 55% 30.01 in 10.0 mi WSW 4.6 mph - N/A   Scattered Clouds
12:56 PM 90.0 °F 96.9 °F 72.0 °F 55% 29.99 in 10.0 mi Calm Calm - N/A   Mostly Cloudy
1:09 PM 90.0 °F 96.9 °F 72.0 °F 55% 30.00 in 10.0 mi SSW 3.5 mph - N/A Thunderstorm Thunderstorm
1:37 PM 84.9 °F 93.3 °F 75.0 °F 72% 29.99 in 10.0 mi SE 4.6 mph - 0.00 in Thunderstorm Overcast
1:50 PM 82.4 °F 89.5 °F 75.2 °F 79% 30.00 in 2.5 mi South 10.4 mph - 0.01 in Rain , Thunderstorm Thunderstorms and Rain
1:53 PM 80.6 °F 86.2 °F 75.2 °F 84% 30.01 in 1.2 mi SSE 12.7 mph 23.0 mph 0.06 in Rain , Thunderstorm Heavy Thunderstorms and Rain
1:56 PM 79.0 °F - 73.9 °F 84% 30.01 in 1.0 mi SSE 23.0 mph 28.8 mph 0.12 in Rain , Thunderstorm Heavy Thunderstorms and Rain
2:09 PM 77.0 °F - 71.1 °F 82% 29.99 in 6.0 mi ESE 12.7 mph - 0.16 in Rain , Thunderstorm Thunderstorms and Rain
2:53 PM 77.0 °F - 71.6 °F 83% 29.96 in 10.0 mi SE 6.9 mph - 0.24 in Rain Light Rain
2:56 PM 77.0 °F - 71.1 °F 82% 29.96 in 10.0 mi SSE 5.8 mph - 0.24 in   Mostly Cloudy
3:32 PM 78.1 °F - 73.0 °F 84% 29.97 in 10.0 mi SSE 4.6 mph - N/A Thunderstorm Mostly Cloudy
3:40 PM 78.1 °F - 73.0 °F 84% 29.98 in 10.0 mi South 5.8 mph - N/A Thunderstorm Thunderstorm
3:56 PM 77.0 °F - 73.0 °F 88% 29.97 in 5.0 mi SW 6.9 mph - 0.00 in Rain , Thunderstorm Light Rain
4:06 PM 77.0 °F - 73.0 °F 88% 29.97 in 6.0 mi SW 3.5 mph - 0.01 in Rain , Thunderstorm Light Thunderstorms and Rain
4:21 PM 78.1 °F - 73.0 °F 84% 29.99 in 10.0 mi West 5.8 mph - 0.01 in Rain , Thunderstorm Light Rain
4:56 PM 78.1 °F - 73.9 °F 87% 29.99 in 10.0 mi ESE 3.5 mph - 0.02 in Thunderstorm Mostly Cloudy
5:15 PM 78.1 °F - 73.9 °F 87% 29.99 in 10.0 mi Calm Calm - 0.00 in Rain Light Rain
5:56 PM 78.1 °F - 73.9 °F 87% 29.97 in 10.0 mi SSE 6.9 mph - 0.00 in Rain , Thunderstorm Light Rain
6:14 PM 78.1 °F - 73.9 °F 87% 29.98 in 10.0 mi South 5.8 mph - 0.00 in Rain Light Rain
6:56 PM 78.1 °F - 73.9 °F 87% 29.99 in 10.0 mi Calm Calm - 0.00 in Rain Light Rain
7:37 PM 77.0 °F - 73.9 °F 90% 30.01 in 9.0 mi Calm Calm - 0.00 in Rain , Thunderstorm Light Rain
7:52 PM 77.0 °F - 73.4 °F 89% 30.02 in 10.0 mi NNE 6.9 mph - 0.00 in   Overcast
7:56 PM 77.0 °F - 73.9 °F 90% 30.01 in 10.0 mi NNE 5.8 mph - 0.00 in   Overcast
8:56 PM 73.9 °F - 71.1 °F 91% 29.99 in 10.0 mi East 4.6 mph - 0.02 in   Overcast
9:56 PM 75.0 °F - 72.0 °F 90% 30.01 in 10.0 mi East 4.6 mph - N/A   Overcast
10:56 PM 75.0 °F - 73.0 °F 94% 30.05 in 10.0 mi North - - N/A Thunderstorm Overcast
11:03 PM 75.0 °F - 72.0 °F 90% 30.06 in 10.0 mi WSW 9.2 mph - N/A Thunderstorm Overcast
11:17 PM 73.9 °F - 71.1 °F 91% 30.05 in 10.0 mi WSW 13.8 mph 20.7 mph N/A Thunderstorm Overcast
11:56 PM 73.0 °F - 70.0 °F 90% 30.04 in 10.0 mi South 8.1 mph - 0.00 in Rain , Thunderstorm Light Rain